Weather History for KACB - March, 2013

Change the Weather History Date:

Thursday, March 21, 2013

  Actual Average (KTVC) Record (KTVC)
Temperature  
Mean Temperature 26 °F 32 °F  
Max Temperature 29 °F 42 °F 87 °F (2012)
Min Temperature 23 °F 23 °F -6 °F (1989)
Degree Days  
Heating Degree Days 39 33  
Month to date heating degree days 760  
Since 1 July heating degree days 6100  
Cooling Degree Days 0 0  
Month to date cooling degree days 0  
Year to date cooling degree days 0  
Moisture  
Dew Point 20 °F    
Average Humidity 76    
Maximum Humidity 91    
Minimum Humidity 57    
Precipitation  
Precipitation 0.00 in 0.06 in 0.56 in (1994)
Month to date precipitation 1.20  
Year to date precipitation 5.52  
Sea Level Pressure  
Sea Level Pressure 29.86 in    
Wind  
Wind Speed 7 mph (NW)    
Max Wind Speed 13 mph    
Max Gust Speed 22 mph    
Visibility 7 miles    
Events      
T = Trace of Precipitation, MM = Missing Value Source: NWS Daily Summary

Daily Weather History Graph

Daily Weather History Graph

Search for Another Location

Airport or City:

Trip Planner

Search our weather history database for the weather conditions in past years. The results will help you decide how hot, cold, wet, or windy it might be!

Date:

Astronomy

Mar. 21, 2013 Rise Set
Actual Time 7:41 AM EDT 7:54 PM EDT
Civil Twilight 7:12 AM EDT 8:24 PM EDT
Nautical Twilight 6:37 AM EDT 8:58 PM EDT
Astronomical Twilight 6:02 AM EDT 9:34 PM EDT
Moon 2:11 PM EDT (3/21) 4:15 AM EDT (3/21)
Length of Visible Light 13h 11m
Length of Day
12h 13m
Waxing Gibbous, 68% of the Moon is Illuminated
Mar 21
Waxing Gibbous
Mar 27
Full
Apr 3
Last Quarter
Apr 10
New
Apr 18
First Quarter

Hourly Weather History & Observations

Time (EDT) Temp. Windchill Dew Point Humidity Pressure Visibility Wind Dir Wind Speed Gust Speed Precip Events Conditions
12:14 AM 23.9 °F 15.8 °F 21.6 °F 91% 29.83 in 0.8 mi West 6.9 mph - N/A   Overcast
12:35 AM 24.4 °F 15.6 °F 21.6 °F 89% 29.83 in 1.8 mi WNW 8.1 mph - N/A   Overcast
12:55 AM 24.6 °F 16.7 °F 21.2 °F 87% 29.83 in 1.2 mi WNW 6.9 mph 18.4 mph N/A   Overcast
1:14 AM 24.6 °F 15.8 °F 21.7 °F 89% 29.82 in 1.8 mi WNW 8.1 mph 16.1 mph N/A   Overcast
1:35 AM 25.2 °F 19.5 °F 21.6 °F 86% 29.82 in 7.0 mi NW 4.6 mph - N/A   Overcast
2:14 AM 25.7 °F 18.0 °F 22.1 °F 86% 29.81 in 4.0 mi WNW 6.9 mph - N/A   Overcast
2:35 AM 25.7 °F 20.1 °F 22.6 °F 88% 29.81 in 7.0 mi NW 4.6 mph - N/A   Overcast
2:54 AM 26.1 °F 19.4 °F 22.6 °F 87% 29.81 in 7.0 mi WNW 5.8 mph - N/A   Overcast
3:14 AM 26.4 °F 19.8 °F 23.2 °F 88% 29.81 in 4.0 mi WNW 5.8 mph - N/A   Overcast
3:35 AM 26.6 °F 19.1 °F 23.4 °F 88% 29.81 in 7.0 mi NW 6.9 mph - N/A   Overcast
3:54 AM 27.0 °F 18.0 °F 23.7 °F 88% 29.80 in 10.0 mi WNW 9.2 mph - N/A   Overcast
4:15 AM 27.5 °F 23.6 °F 24.1 °F 87% 29.80 in 7.0 mi NW 3.5 mph - N/A   Overcast
4:35 AM 27.3 °F 22.0 °F 24.1 °F 88% 29.81 in 10.0 mi NNW 4.6 mph - N/A   Overcast
4:54 AM 27.1 °F 21.8 °F 23.0 °F 84% 29.81 in 10.0 mi North 4.6 mph - N/A   Overcast
5:15 AM 27.0 °F 21.6 °F 22.1 °F 82% 29.81 in 10.0 mi NW 4.6 mph - N/A   Overcast
5:34 AM 27.1 °F 20.7 °F 22.1 °F 81% 29.81 in 10.0 mi NW 5.8 mph - N/A   Overcast
5:55 AM 27.0 °F 23.0 °F 21.9 °F 81% 29.82 in 10.0 mi NNW 3.5 mph - N/A   Overcast
6:15 AM 26.8 °F 21.4 °F 21.9 °F 82% 29.82 in 7.0 mi NNW 4.6 mph - N/A   Overcast
6:34 AM 26.4 °F 20.9 °F 22.5 °F 85% 29.82 in 5.0 mi NW 4.6 mph - N/A   Overcast
6:55 AM 26.2 °F 20.7 °F 22.8 °F 87% 29.82 in 7.0 mi WNW 4.6 mph - N/A   Overcast
7:14 AM 26.4 °F 19.8 °F 22.8 °F 86% 29.83 in 10.0 mi NW 5.8 mph - N/A   Overcast
7:35 AM 26.2 °F 20.7 °F 22.6 °F 86% 29.83 in 5.0 mi NW 4.6 mph - N/A   Overcast
7:55 AM 26.2 °F 19.6 °F 21.7 °F 83% 29.83 in 10.0 mi NW 5.8 mph - N/A   Overcast
8:14 AM 26.4 °F 20.9 °F 21.2 °F 81% 29.83 in 7.0 mi NW 4.6 mph - N/A   Overcast
8:35 AM 26.2 °F 22.1 °F 21.6 °F 82% 29.83 in 5.0 mi NW 3.5 mph - N/A   Overcast
8:54 AM 26.4 °F 18.9 °F 21.6 °F 82% 29.84 in 7.0 mi NNW 6.9 mph - N/A   Overcast
9:14 AM 26.4 °F 18.9 °F 21.2 °F 81% 29.85 in 7.0 mi NW 6.9 mph - N/A   Overcast
9:35 AM 26.6 °F 17.5 °F 20.1 °F 77% 29.85 in 5.0 mi NW 9.2 mph 16.1 mph N/A   Overcast
9:54 AM 26.8 °F 19.3 °F 19.9 °F 75% 29.85 in 7.0 mi NNW 6.9 mph - N/A   Overcast
10:15 AM 26.6 °F 21.2 °F 20.5 °F 78% 29.86 in 5.0 mi NNW 4.6 mph - N/A   Overcast
10:35 AM 26.6 °F 21.2 °F 20.8 °F 79% 29.86 in 4.0 mi NW 4.6 mph - N/A   Overcast
10:54 AM 26.6 °F 22.6 °F 21.2 °F 80% 29.87 in 3.0 mi NW 3.5 mph - N/A   Overcast
11:15 AM 27.5 °F 21.1 °F 20.5 °F 75% 29.86 in 4.0 mi NNW 5.8 mph - N/A   Overcast
11:35 AM 27.5 °F 17.4 °F 18.9 °F 70% 29.86 in 7.0 mi NW 11.5 mph 17.3 mph N/A   Overcast
11:54 AM 28.0 °F 18.6 °F 19.0 °F 69% 29.87 in 4.0 mi NNW 10.4 mph - N/A   Overcast
12:15 PM 28.6 °F 19.3 °F 18.5 °F 66% 29.87 in 7.0 mi NNW 10.4 mph 18.4 mph N/A   Overcast
12:35 PM 27.9 °F 17.3 °F 19.4 °F 71% 29.87 in 3.0 mi NW 12.7 mph 19.6 mph N/A   Overcast
12:54 PM 29.3 °F 19.6 °F 17.8 °F 62% 29.86 in 10.0 mi NW 11.5 mph 20.7 mph N/A   Overcast
1:15 PM 29.1 °F 18.9 °F 17.1 °F 61% 29.86 in 10.0 mi NW 12.7 mph 19.6 mph N/A   Overcast
1:35 PM 28.9 °F 18.6 °F 16.2 °F 59% 29.87 in 7.0 mi NW 12.7 mph 20.7 mph N/A   Overcast
1:54 PM 29.1 °F 19.4 °F 16.0 °F 58% 29.87 in 10.0 mi NNW 11.5 mph 16.1 mph N/A   Overcast
2:15 PM 28.9 °F 20.4 °F 15.4 °F 57% 29.88 in 10.0 mi North 9.2 mph 17.3 mph N/A   Overcast
2:35 PM 28.4 °F 18.0 °F 16.3 °F 61% 29.88 in 10.0 mi NNW 12.7 mph 19.6 mph N/A   Overcast
2:55 PM 28.2 °F 21.0 °F 17.8 °F 65% 29.88 in 10.0 mi NNW 6.9 mph - N/A   Overcast
3:15 PM 28.0 °F 19.3 °F 18.3 °F 67% 29.88 in 5.0 mi NNW 9.2 mph 18.4 mph N/A   Overcast
3:34 PM 28.4 °F 19.1 °F 18.1 °F 65% 29.88 in 10.0 mi NNW 10.4 mph 17.3 mph N/A   Overcast
3:55 PM 28.2 °F 20.2 °F 19.0 °F 68% 29.88 in 10.0 mi NNW 8.1 mph - N/A   Overcast
4:15 PM 28.2 °F 20.2 °F 18.0 °F 65% 29.88 in 7.0 mi NW 8.1 mph 16.1 mph N/A   Overcast
4:34 PM 28.4 °F 22.2 °F 18.5 °F 66% 29.89 in 10.0 mi NNW 5.8 mph - N/A   Overcast
4:55 PM 28.0 °F 19.3 °F 19.2 °F 70% 29.89 in 7.0 mi NNW 9.2 mph 18.4 mph N/A   Overcast
5:15 PM 28.2 °F 17.7 °F 19.4 °F 70% 29.89 in 10.0 mi NW 12.7 mph 21.9 mph N/A   Overcast
5:34 PM 28.4 °F 20.4 °F 18.7 °F 67% 29.90 in 10.0 mi NNW 8.1 mph 16.1 mph N/A   Overcast
5:55 PM 28.0 °F 20.0 °F 18.0 °F 66% 29.90 in 10.0 mi NNW 8.1 mph - N/A   Overcast
6:14 PM 27.5 °F 19.3 °F 18.9 °F 70% 29.90 in 10.0 mi NW 8.1 mph - N/A   Overcast
6:35 PM 27.3 °F 19.9 °F 19.2 °F 72% 29.91 in 7.0 mi NNW 6.9 mph - N/A   Overcast
6:55 PM 27.1 °F 18.9 °F 19.4 °F 73% 29.91 in 7.0 mi NNW 8.1 mph - N/A   Overcast
7:15 PM 27.0 °F 23.0 °F 19.9 °F 75% 29.91 in 5.0 mi NW 3.5 mph - N/A   Overcast
7:35 PM 26.6 °F 20.0 °F 19.9 °F 76% 29.91 in 7.0 mi NNW 5.8 mph - N/A   Overcast
7:55 PM 26.6 °F 22.6 °F 19.9 °F 76% 29.92 in 7.0 mi NW 3.5 mph - N/A   Overcast
8:15 PM 26.4 °F 18.9 °F 19.8 °F 76% 29.92 in 7.0 mi NNW 6.9 mph 16.1 mph N/A   Overcast
8:17 PM 26.4 °F 20.9 °F 19.8 °F 76% 29.92 in 7.0 mi NNW 4.6 mph - N/A   Overcast
8:57 PM - - - N/A% - 10.0 mi NNW 5.8 mph - N/A   Unknown
9:17 PM 26.6 °F 20.0 °F 19.4 °F 74% 29.93 in 10.0 mi NW 5.8 mph - N/A   Overcast
9:37 PM 26.6 °F 18.2 °F 19.4 °F 74% 29.93 in 10.0 mi NNW 8.1 mph - N/A   Overcast
9:57 PM 26.6 °F 22.6 °F 19.4 °F 74% 29.93 in 10.0 mi NW 3.5 mph - N/A   Overcast
10:19 PM 26.6 °F 18.2 °F 19.4 °F 74% 29.93 in 10.0 mi NW 8.1 mph - N/A   Overcast
10:37 PM - - - N/A% - - North - - N/A   Unknown
10:57 PM 26.6 °F 21.2 °F 17.6 °F 69% 29.94 in 10.0 mi NW 4.6 mph - N/A   Overcast
11:19 PM - - - N/A% - 10.0 mi NNW 3.5 mph - N/A   Overcast
11:37 PM 24.8 °F 19.1 °F 17.6 °F 74% 29.94 in 10.0 mi NW 4.6 mph - N/A   Overcast
11:58 PM 24.8 °F 16.9 °F 17.6 °F 74% 29.94 in 10.0 mi NW 6.9 mph - N/A   Overcast